When you browse on this site, cookies collect data to enhance your experience and personalize the content and advertising you see.
Visit our Privacy Policy to learn more. By continuing to use the site, you agree to this use of cookies and data.
  • In Hungary
  • List of Countries
  • For 7 days
  • Water Temperature
  • Weather Map
  • News
  • Weather Widgets
  • user-avatar
    Login

    Hourly Weather Blagoveschene

    Today, 15 September, Sunday

    Time Temperature Precipitation Wind Pressure Humidity
    00:00 +5°C° 0 mm 3 mps 741 mmHg 91%
    01:00 +5°C° 0 mm 3 mps 741 mmHg 93%
    02:00 +4°C° 0 mm 3 mps 741 mmHg 94%
    03:00 +4°C° 0 mm 3 mps 741 mmHg 95%
    04:00 +4°C° 0 mm 3 mps 742 mmHg 96%
    05:00 +3°C° 0 mm 3 mps 742 mmHg 97%
    06:00 +4°C° 0 mm 3 mps 742 mmHg 92%
    07:00 +5°C° 0 mm 3 mps 742 mmHg 87%
    08:00 +7°C° 0 mm 3 mps 742 mmHg 81%
    09:00 +8°C° 0 mm 4 mps 741 mmHg 75%
    10:00 +10°C° 0 mm 4 mps 741 mmHg 69%
    11:00 +11°C° 0 mm 4 mps 741 mmHg 63%
    12:00 +11°C° 0 mm 4 mps 740 mmHg 65%
    13:00 +10°C° 0 mm 4 mps 739 mmHg 68%
    14:00 +10°C° 0 mm 4 mps 739 mmHg 70%
    15:00 +9°C° 0.1 mm 5 mps 738 mmHg 73%
    16:00 +8°C° 0.1 mm 5 mps 736 mmHg 77%
    17:00 +7°C° 0.1 mm 5 mps 735 mmHg 80%
    18:00 +7°C° 0.5 mm 5 mps 734 mmHg 84%
    19:00 +7°C° 0.5 mm 6 mps 733 mmHg 89%
    20:00 +7°C° 0.5 mm 6 mps 731 mmHg 93%
    21:00 +7°C° 1.2 mm 6 mps 730 mmHg 93%
    22:00 +7°C° 1.2 mm 6 mps 729 mmHg 93%
    23:00 +8°C° 1.2 mm 6 mps 728 mmHg 93%

    Tomorrow, 16 September, Monday

    Time Temperature Precipitation Wind Pressure Humidity
    00:00 +8°C° 0.2 mm 6 mps 728 mmHg 93%
    01:00 +7°C° 0.2 mm 5 mps 727 mmHg 93%
    02:00 +7°C° 0.2 mm 5 mps 727 mmHg 94%
    03:00 +7°C° 0.1 mm 5 mps 727 mmHg 93%
    04:00 +7°C° 0.1 mm 4 mps 727 mmHg 92%
    05:00 +7°C° 0.1 mm 4 mps 727 mmHg 92%
    06:00 +7°C° 0.1 mm 4 mps 727 mmHg 91%
    07:00 +7°C° 0.1 mm 4 mps 726 mmHg 90%
    08:00 +8°C° 0.1 mm 4 mps 726 mmHg 89%
    09:00 +8°C° 0.1 mm 5 mps 726 mmHg 86%
    10:00 +9°C° 0.1 mm 5 mps 726 mmHg 82%
    11:00 +10°C° 0.1 mm 6 mps 726 mmHg 78%
    12:00 +9°C° 0.2 mm 5 mps 726 mmHg 80%
    13:00 +9°C° 0.2 mm 5 mps 726 mmHg 83%
    14:00 +9°C° 0.2 mm 5 mps 725 mmHg 86%
    15:00 +9°C° 0.3 mm 5 mps 725 mmHg 86%
    16:00 +9°C° 0.3 mm 5 mps 725 mmHg 86%
    17:00 +9°C° 0.3 mm 5 mps 725 mmHg 87%
    18:00 +8°C° 0.2 mm 5 mps 724 mmHg 89%
    19:00 +8°C° 0.2 mm 5 mps 724 mmHg 90%
    20:00 +7°C° 0.2 mm 5 mps 724 mmHg 92%
    21:00 +7°C° 0.3 mm 5 mps 724 mmHg 92%
    22:00 +7°C° 0.3 mm 5 mps 724 mmHg 92%
    23:00 +7°C° 0.3 mm 6 mps 724 mmHg 91%

    Day after tomorrow, 17 September, Tuesday

    Time Temperature Precipitation Wind Pressure Humidity
    00:00 +7°C° 0.2 mm 6 mps 724 mmHg 91%
    01:00 +7°C° 0.2 mm 6 mps 724 mmHg 91%
    02:00 +5°C° 0.2 mm 6 mps 724 mmHg 91%
    03:00 +6°C° 0.1 mm 5 mps 724 mmHg 91%
    04:00 +6°C° 0.1 mm 5 mps 725 mmHg 91%
    05:00 +6°C° 0.1 mm 5 mps 725 mmHg 91%
    06:00 +6°C° 0 mm 5 mps 725 mmHg 90%
    07:00 +6°C° 0 mm 4 mps 726 mmHg 89%
    08:00 +6°C° 0 mm 4 mps 726 mmHg 89%
    09:00 +7°C° 0 mm 4 mps 726 mmHg 85%
    10:00 +7°C° 0 mm 4 mps 727 mmHg 82%
    11:00 +8°C° 0 mm 4 mps 727 mmHg 78%
    12:00 +8°C° 0.2 mm 4 mps 727 mmHg 75%
    13:00 +10°C° 0.2 mm 4 mps 727 mmHg 72%
    14:00 +11°C° 0.2 mm 3 mps 727 mmHg 69%
    15:00 +10°C° 0.1 mm 3 mps 727 mmHg 73%
    16:00 +9°C° 0.1 mm 2 mps 727 mmHg 76%
    17:00 +10°C° 0.1 mm 1 mps 727 mmHg 80%
    18:00 +9°C° 0.1 mm 1 mps 727 mmHg 83%
    19:00 +8°C° 0.1 mm 1 mps 728 mmHg 86%
    20:00 +8°C° 0.1 mm 1 mps 728 mmHg 89%
    21:00 +8°C° 0.1 mm 1 mps 728 mmHg 90%
    22:00 +7°C° 0.1 mm 1 mps 728 mmHg 92%
    23:00 +7°C° 0.1 mm 1 mps 728 mmHg 93%

    18 September, Wednesday

    Time Temperature Precipitation Wind Pressure Humidity
    00:00 +7°C° 0.1 mm 1 mps 728 mmHg 94%
    01:00 +7°C° 0.1 mm 1 mps 728 mmHg 94%
    02:00 +7°C° 0.1 mm 1 mps 728 mmHg 95%
    03:00 +7°C° 0.2 mm 1 mps 728 mmHg 95%
    04:00 +7°C° 0.2 mm 1 mps 728 mmHg 96%
    05:00 +6°C° 0.2 mm 1 mps 728 mmHg 97%
    06:00 +6°C° 0.1 mm 2 mps 728 mmHg 95%
    07:00 +6°C° 0.1 mm 2 mps 728 mmHg 93%
    08:00 +7°C° 0.1 mm 2 mps 729 mmHg 91%
    09:00 +7°C° 0.1 mm 2 mps 729 mmHg 87%
    10:00 +8°C° 0.1 mm 2 mps 729 mmHg 82%
    11:00 +9°C° 0.1 mm 3 mps 729 mmHg 78%
    12:00 +9°C° 0.4 mm 3 mps 730 mmHg 77%
    13:00 +9°C° 0.4 mm 3 mps 730 mmHg 76%
    14:00 +8°C° 0.4 mm 4 mps 730 mmHg 76%
    15:00 +9°C° 0.1 mm 3 mps 731 mmHg 78%
    16:00 +8°C° 0.1 mm 3 mps 731 mmHg 81%
    17:00 +7°C° 0.1 mm 2 mps 731 mmHg 83%
    18:00 +6°C° 0 mm 2 mps 732 mmHg 86%
    19:00 +5°C° 0 mm 2 mps 733 mmHg 90%
    20:00 +4°C° 0 mm 2 mps 733 mmHg 93%
    21:00 +3°C° 0 mm 2 mps 734 mmHg 94%
    22:00 +3°C° 0 mm 2 mps 734 mmHg 95%
    23:00 +2°C° 0 mm 2 mps 735 mmHg 96%

    19 September, Thursday

    Time Temperature Precipitation Wind Pressure Humidity
    00:00 +2°C° 0 mm 2 mps 735 mmHg 96%
    01:00 +2°C° 0 mm 2 mps 736 mmHg 96%
    02:00 +2°C° 0 mm 2 mps 736 mmHg 96%
    03:00 +2°C° 0 mm 2 mps 736 mmHg 96%
    04:00 +1°C° 0 mm 2 mps 737 mmHg 97%
    05:00 +1°C° 0 mm 2 mps 737 mmHg 98%
    06:00 +2°C° 0 mm 2 mps 738 mmHg 93%
    07:00 +2°C° 0 mm 2 mps 738 mmHg 88%
    08:00 +2°C° 0 mm 3 mps 739 mmHg 84%
    09:00 +4°C° 0 mm 3 mps 739 mmHg 74%
    10:00 +5°C° 0 mm 3 mps 739 mmHg 64%
    11:00 +7°C° 0 mm 3 mps 740 mmHg 55%
    12:00 +7°C° 0 mm 3 mps 740 mmHg 51%
    13:00 +8°C° 0 mm 3 mps 740 mmHg 48%
    14:00 +8°C° 0 mm 3 mps 740 mmHg 45%
    15:00 +7°C° 0 mm 2 mps 740 mmHg 50%
    16:00 +6°C° 0 mm 2 mps 740 mmHg 55%
    17:00 +6°C° 0 mm 1 mps 740 mmHg 61%
    18:00 +4°C° 0 mm 2 mps 740 mmHg 67%
    19:00 +3°C° 0 mm 2 mps 741 mmHg 74%
    20:00 +2°C° 0 mm 2 mps 741 mmHg 80%
    21:00 +1°C° 0 mm 2 mps 741 mmHg 85%
    22:00 +1°C° 0 mm 2 mps 741 mmHg 91%
    23:00 +1°C° 0 mm 2 mps 741 mmHg 96%

    20 September, Friday

    Time Temperature Precipitation Wind Pressure Humidity
    00:00 -1°C° 0 mm 2 mps 741 mmHg 96%
    01:00 -1°C° 0 mm 2 mps 741 mmHg 96%
    02:00 -1°C° 0 mm 2 mps 741 mmHg 96%
    03:00 -2°C° 0 mm 2 mps 741 mmHg 97%
    04:00 -2°C° 0 mm 2 mps 741 mmHg 97%
    05:00 -2°C° 0 mm 2 mps 741 mmHg 97%
    06:00 -1°C° 0 mm 3 mps 741 mmHg 90%
    07:00 +1°C° 0 mm 3 mps 741 mmHg 84%
    08:00 +2°C° 0 mm 3 mps 741 mmHg 78%
    09:00 +3°C° 0 mm 4 mps 742 mmHg 73%
    10:00 +4°C° 0 mm 4 mps 742 mmHg 68%
    11:00 +5°C° 0 mm 4 mps 742 mmHg 63%
    12:00 +5°C° 0.1 mm 4 mps 742 mmHg 62%
    13:00 +5°C° 0.1 mm 4 mps 742 mmHg 61%
    14:00 +5°C° 0.1 mm 4 mps 742 mmHg 60%
    15:00 +5°C° 0 mm 4 mps 742 mmHg 63%
    16:00 +4°C° 0 mm 3 mps 742 mmHg 66%
    17:00 +3°C° 0 mm 3 mps 742 mmHg 69%
    18:00 +2°C° 0 mm 3 mps 742 mmHg 73%
    19:00 +1°C° 0 mm 3 mps 743 mmHg 76%
    20:00 +1°C° 0 mm 2 mps 743 mmHg 79%
    21:00 0°C° 0 mm 3 mps 743 mmHg 82%
    22:00 0°C° 0 mm 3 mps 743 mmHg 84%
    23:00 -1°C° 0 mm 3 mps 742 mmHg 87%
    Show more